Weather History for Anaktuvuk Pass, AK

Change the Weather History Date:

Monday, June 18, 2012

  Actual Average Record
Temperature  
Mean Temperature 52 °F -  
Max Temperature 68 °F 57 °F 78 °F (2013)
Min Temperature 35 °F 39 °F 30 °F (2002)
Degree Days  
Heating Degree Days 14    
Growing Degree Days 2 (Base 50)    
Moisture  
Dew Point 29 °F    
Average Humidity 46    
Maximum Humidity 87    
Minimum Humidity 21    
Precipitation  
Precipitation 0.00 in - - ()
Sea Level Pressure  
Sea Level Pressure 29.84 in    
Wind  
Wind Speed 4 mph (SSE)    
Max Wind Speed 9 mph    
Max Gust Speed 16 mph    
Visibility 9 miles    
Events      
Averages and records for this station are not official NWS values.
T = Trace of Precipitation, MM = Missing Value Source: NWS Daily Summary

Daily Weather History Graph

Daily Weather History Graph

Search for Another Location

Airport:

Trip Planner

Search our weather history database for the weather conditions in past years. The results will help you decide how hot, cold, wet, or windy it might be!

Date:

Astronomy

Dec. 31, 1969 Rise Set
Actual Time Sun does not rise Sun does not rise
Civil Twilight Sun does not rise Sun does not rise
Nautical Twilight Sun does not rise Sun does not rise
Astronomical Twilight Sun does not rise Sun does not rise
Moon 1:47 AM AKDT 12:28 AM AKDT
Length of Visible Light 24h 00m
Length of Day
24h 00m
Waning Crescent, 1% of the Moon is Illuminated
Jun 18
Waning Crescent
Jun 19
New
Jun 26
First Quarter
Jul 3
Full
Jul 10
Last Quarter

Hourly Weather History & Observations

Time (AKDT) Temp. Windchill Dew Point Humidity Pressure Visibility Wind Dir Wind Speed Gust Speed Precip Events Conditions
12:16 AM 41.0 °F 35.8 °F 35.6 °F 81% 29.81 in 10.0 mi NE 8.1 mph - N/A   Clear
12:36 AM 41.0 °F 35.8 °F 35.6 °F 81% 29.82 in 10.0 mi NE 8.1 mph - N/A   Clear
12:56 AM 39.2 °F 35.0 °F 33.8 °F 81% 29.82 in 10.0 mi NNW 5.8 mph - N/A   Clear
1:16 AM 39.2 °F 35.0 °F 33.8 °F 81% 29.82 in 10.0 mi NNW 5.8 mph - N/A   Clear
1:36 AM 39.2 °F 37.0 °F 35.6 °F 87% 29.82 in 10.0 mi North 3.5 mph - N/A   Clear
1:56 AM 37.4 °F 32.8 °F 32.0 °F 81% 29.83 in 10.0 mi North 5.8 mph - N/A   Clear
2:16 AM 35.6 °F - 32.0 °F 87% 29.83 in 10.0 mi Calm Calm - N/A   Clear
2:36 AM 35.6 °F - 32.0 °F 87% 29.83 in 10.0 mi Calm Calm - N/A   Clear
2:56 AM 35.6 °F - 30.2 °F 81% 29.83 in 10.0 mi Calm Calm - N/A   Clear
3:16 AM 35.6 °F - 32.0 °F 87% 29.83 in 10.0 mi Calm Calm - N/A   Clear
3:36 AM 35.6 °F - 30.2 °F 81% 29.83 in 10.0 mi Calm Calm - N/A   Clear
3:56 AM 35.6 °F - 30.2 °F 81% 29.84 in 10.0 mi Calm Calm - N/A   Clear
4:16 AM 35.6 °F - 32.0 °F 87% 29.84 in 10.0 mi Calm Calm - N/A   Clear
4:36 AM 35.6 °F - 30.2 °F 81% 29.84 in 10.0 mi Calm Calm - N/A   Clear
4:56 AM 35.6 °F - 30.2 °F 81% 29.84 in 10.0 mi Calm Calm - N/A   Clear
5:16 AM 37.4 °F - 33.8 °F 87% 29.84 in 10.0 mi Calm Calm - N/A   Clear
5:36 AM 37.4 °F - 33.8 °F 87% 29.84 in 10.0 mi Calm Calm - N/A   Clear
5:56 AM 39.2 °F - 33.8 °F 81% 29.83 in 10.0 mi Calm Calm - N/A   Clear
6:16 AM 39.2 °F - 33.8 °F 81% 29.84 in 10.0 mi Calm Calm - N/A   Clear
6:36 AM 42.8 °F 41.1 °F 35.6 °F 76% 29.84 in 10.0 mi South 3.5 mph - N/A   Clear
6:56 AM 44.6 °F - 35.6 °F 71% 29.84 in 10.0 mi Calm Calm - N/A   Clear
7:16 AM 46.4 °F 43.5 °F 32.0 °F 57% 29.84 in 10.0 mi SSW 5.8 mph - N/A   Clear
7:36 AM 46.4 °F 44.3 °F 33.8 °F 62% 29.84 in 10.0 mi SSW 4.6 mph - N/A   Clear
7:56 AM 46.4 °F 45.2 °F 32.0 °F 57% 29.84 in 10.0 mi SSW 3.5 mph - N/A   Clear
8:16 AM 48.2 °F - 32.0 °F 54% 29.85 in 10.0 mi South 3.5 mph - N/A   Clear
8:36 AM 50.0 °F - 32.0 °F 50% 29.85 in 10.0 mi South 4.6 mph - N/A   Clear
8:56 AM 51.8 °F - 28.4 °F 41% 29.85 in 10.0 mi South 5.8 mph - N/A   Clear
9:16 AM 51.8 °F - 26.6 °F 38% 29.85 in 10.0 mi South 5.8 mph - N/A   Clear
9:36 AM 53.6 °F - 26.6 °F 35% 29.85 in 10.0 mi South 5.8 mph - N/A   Clear
9:56 AM 55.4 °F - 24.8 °F 31% 29.85 in 10.0 mi South 4.6 mph - N/A   Clear
10:16 AM 55.4 °F - 24.8 °F 31% 29.85 in 10.0 mi SSW 3.5 mph - N/A   Clear
10:36 AM 57.2 °F - 23.0 °F 27% 29.85 in 10.0 mi South 5.8 mph - N/A   Clear
10:56 AM 57.2 °F - 24.8 °F 29% 29.85 in 10.0 mi SSE 3.5 mph - N/A   Clear
11:16 AM 59.0 °F - 24.8 °F 27% 29.85 in 10.0 mi SSE 5.8 mph - N/A   Clear
11:36 AM 60.8 °F - 26.6 °F 27% 29.85 in 5.0 mi Calm Calm - N/A   Clear
11:56 AM 60.8 °F - 28.4 °F 29% 29.85 in 10.0 mi SSW 4.6 mph - N/A   Clear
12:16 PM 62.6 °F - 26.6 °F 26% 29.85 in 8.0 mi Calm Calm - N/A   Clear
12:36 PM 62.6 °F - 26.6 °F 26% 29.84 in 6.0 mi SSW 4.6 mph - N/A   Clear
12:56 PM 62.6 °F - 24.8 °F 24% 29.84 in 10.0 mi Calm Calm - N/A   Clear
1:16 PM 62.6 °F - 24.8 °F 24% 29.84 in 10.0 mi South 5.8 mph - N/A   Clear
1:36 PM 64.4 °F - 24.8 °F 22% 29.84 in 10.0 mi South 6.9 mph - N/A   Clear
1:56 PM 64.4 °F - 24.8 °F 22% 29.83 in 10.0 mi South 8.1 mph - N/A   Clear
2:16 PM 64.4 °F - 24.8 °F 22% 29.83 in 10.0 mi South 4.6 mph - N/A   Clear
2:36 PM 64.4 °F - 24.8 °F 22% 29.83 in 7.0 mi SW 6.9 mph 16.1 mph N/A   Clear
2:56 PM 66.2 °F - 24.8 °F 21% 29.83 in 10.0 mi SSW 8.1 mph - N/A   Clear
3:16 PM 66.2 °F - 24.8 °F 21% 29.83 in 9.0 mi South 9.2 mph - N/A   Clear
3:36 PM 66.2 °F - 24.8 °F 21% 29.83 in 9.0 mi South 9.2 mph - N/A   Clear
3:56 PM 66.2 °F - 26.6 °F 23% 29.83 in 3.0 mi SW 9.2 mph - N/A   Clear
4:16 PM 66.2 °F - 26.6 °F 23% 29.83 in 10.0 mi SE 4.6 mph - N/A   Clear
4:36 PM 68.0 °F - 26.6 °F 21% 29.83 in 7.0 mi SSE 4.6 mph - N/A   Clear
4:56 PM 66.2 °F - 26.6 °F 23% 29.83 in 10.0 mi South 6.9 mph - N/A   Clear
5:16 PM 68.0 °F - 26.6 °F 21% 29.83 in 10.0 mi Calm Calm - N/A   Clear
5:36 PM 66.2 °F - 26.6 °F 23% 29.83 in 10.0 mi ENE 5.8 mph - N/A   Clear
5:56 PM 68.0 °F - 26.6 °F 21% 29.83 in 10.0 mi NE 5.8 mph - N/A   Clear
6:16 PM 68.0 °F - 26.6 °F 21% 29.83 in 10.0 mi NE 9.2 mph - N/A   Clear
6:36 PM 68.0 °F - 26.6 °F 21% 29.83 in 10.0 mi ENE 5.8 mph - N/A   Clear
6:56 PM 66.2 °F - 26.6 °F 23% 29.83 in 10.0 mi East 4.6 mph - N/A   Clear
7:16 PM 66.2 °F - 26.6 °F 23% 29.83 in 8.0 mi SE 3.5 mph - N/A   Clear
7:36 PM 66.2 °F - 26.6 °F 23% 29.83 in 10.0 mi Calm Calm - N/A   Clear
7:56 PM 68.0 °F - 26.6 °F 21% 29.82 in 10.0 mi Calm Calm - N/A   Clear
8:36 PM 68.0 °F - 26.6 °F 21% 29.82 in 10.0 mi Calm Calm - N/A   Clear
8:56 PM 68.0 °F - 28.4 °F 23% 29.82 in 10.0 mi Calm Calm - N/A   Clear
9:16 PM 68.0 °F - 28.4 °F 23% 29.82 in 9.0 mi NNW 4.6 mph - N/A   Clear
9:36 PM 62.6 °F - 33.8 °F 34% 29.83 in 5.0 mi NNW 3.5 mph - N/A   Clear
9:56 PM 62.6 °F - 32.0 °F 32% 29.83 in 9.0 mi NNE 4.6 mph - N/A   Clear
10:16 PM 59.0 °F - 32.0 °F 36% 29.83 in 9.0 mi NNE 5.8 mph - N/A   Clear
10:36 PM 59.0 °F - 32.0 °F 36% 29.83 in 10.0 mi North 4.6 mph - N/A   Clear
10:56 PM 57.2 °F - 33.8 °F 41% 29.83 in 8.0 mi NE 3.5 mph - N/A   Clear
11:16 PM 57.2 °F - 35.6 °F 44% 29.84 in 1.5 mi Calm Calm - N/A   Clear
11:36 PM 55.4 °F - 35.6 °F 47% 29.84 in 4.0 mi NNW 3.5 mph - N/A   Clear
11:56 PM 55.4 °F - 35.6 °F 47% 29.85 in 9.0 mi Calm Calm - N/A   Clear